Wind_Speed
15 16 18 18 17 15 14 13 11 11 11 11 12 13 12 12 12 13 11 12 14 12 13 12 14 15 17 19 18 19 31 20 12 10 10 12 8 5 11 6 16 17 12 4 9
13 15 16 18 18 17 16 14 12 11 11 11 12 13 13 13 12 11 13 13 14 13 13 12 13 11 15 19 20 17 31 21 18 12 9 6 2 7 14 17 17 18 16 17 9
12 13 15 16 17 17 16 15 13 13 13 11 13 14 14 12 13 13 14 15 14 13 13 14 12 13 17 17 19 15 32 26 22 16 2 6 2 9 14 18 19 17 27 15 15
13 14 14 15 16 16 16 16 15 14 13 12 15 15 14 13 14 14 15 15 15 15 14 14 14 13 15 16 18 15 39 33 23 24 13 2 14 12 18 16 19 23 28 20 6
13 14 16 17 17 17 17 17 16 15 15 15 15 16 15 15 15 16 15 15 15 16 15 15 16 15 16 17 18 19 38 38 32 29 22 12 6 18 20 22 23 21 23 25 8
13 14 15 16 18 18 19 19 19 18 17 17 17 16 16 14 18 16 16 16 15 17 16 19 21 19 17 17 17 23 35 38 42 37 32 27 16 19 21 17 18 14 14 16 11
12 14 15 15 17 18 20 21 22 21 20 20 18 17 17 13 19 16 16 17 17 17 17 17 15 12 13 14 16 17 25 31 36 39 36 35 26 21 17 13 9 6 13 16 13
11 12 14 15 16 17 19 20 21 21 21 19 19 18 18 18 17 17 17 18 18 17 16 17 16 16 17 17 16 13 11 14 30 27 25 25 22 15 17 17 4 6 14 16 20
11 12 12 13 13 15 16 18 19 20 20 19 19 18 16 17 16 18 19 20 19 18 17 18 17 17 15 15 12 13 14 18 18 16 17 8 3 8 17 15 7 9 12 15 18
10 10 11 11 12 13 13 15 16 17 17 17 18 18 16 14 19 18 18 18 18 18 18 20 18 16 15 11 13 13 18 22 20 13 13 9 11 16 11 15 15 20 20 14 17
10 10 10 10 11 11 12 12 13 14 15 16 17 15 14 16 16 16 16 15 15 17 21 19 18 19 18 18 19 23 27 24 23 8 8 7 12 11 23 23 23 26 23 25 29
11 10 11 11 11 11 11 13 14 14 15 15 16 14 16 17 16 16 15 18 17 18 17 16 22 20 22 24 25 29 27 21 20 17 14 12 21 25 25 29 28 32 32 34 24
13 12 12 12 12 12 12 13 12 12 12 13 15 14 15 16 14 16 17 18 19 20 19 21 22 24 25 26 24 26 25 19 19 27 25 27 24 27 27 27 30 33 36 37 39
14 13 13 12 12 12 13 12 14 13 12 13 12 10 16 13 11 15 17 17 17 18 24 23 26 27 28 29 29 28 25 27 31 33 34 33 34 34 34 34 37 39 42 44 47
15 14 14 13 12 13 12 13 13 14 14 14 13 14 15 13 13 14 15 17 19 24 24 20 28 29 31 29 25 24 27 28 29 30 34 35 41 43 41 39 44 44 43 41 49
17 17 17 15 14 13 13 12 12 15 16 12 12 14 16 14 12 14 19 19 20 19 15 19 23 31 32 30 28 24 23 27 27 27 27 26 33 40 38 39 43 43 40 40 41
18 19 19 17 18 18 18 14 14 18 21 17 15 15 17 13 15 16 17 19 21 20 20 18 27 30 32 32 24 19 21 23 27 25 29 32 34 43 38 38 43 47 46 46 46
18 19 20 18 20 21 20 17 18 24 23 18 18 20 20 16 19 22 22 20 21 22 24 26 31 32 32 33 29 26 27 26 28 28 29 33 37 33 32 36 41 46 48 48 49
20 19 19 19 21 21 20 18 22 22 20 18 18 22 26 23 20 25 25 25 21 21 23 26 33 35 39 37 35 30 30 29 25 24 34 37 38 41 37 37 45 46 48 47 48
18 19 21 22 22 22 21 24 25 21 20 25 24 24 26 29 27 26 28 26 23 24 25 26 33 35 37 37 36 30 28 27 25 28 33 38 41 45 45 44 43 41 44 47 51
18 18 22 22 23 24 25 30 26 21 24 27 29 28 29 30 33 30 28 25 18 18 23 26 31 37 39 40 37 34 34 33 33 34 36 40 44 43 43 45 47 49 49 49 50
21 20 20 20 24 26 29 31 27 23 26 27 28 28 29 31 34 33 31 26 22 22 23 25 31 36 41 43 42 41 40 41 40 36 35 41 43 42 43 43 44 46 49 51 53
22 20 21 23 26 29 27 29 26 25 26 27 29 32 32 31 33 35 33 30 28 25 26 26 30 33 38 40 40 37 36 36 37 37 38 40 44 44 45 49 51 52 54 58 60
18 18 21 25 26 27 27 28 29 28 28 29 31 32 34 34 33 34 33 33 31 30 30 32 33 35 37 38 38 38 38 38 39 40 40 42 45 49 52 54 56 59 61 63 66
15 17 16 19 23 25 27 29 29 28 29 29 31 33 35 35 34 34 33 33 33 32 33 34 36 38 37 38 37 39 41 42 43 44 45 46 49 52 55 57 60 61 63 66 69
14 14 15 17 19 22 26 29 27 25 25 29 30 32 31 32 33 34 34 35 36 36 35 36 39 41 41 42 44 45 46 48 49 52 53 53 55 56 58 60 63 65 68 70 70
14 16 18 19 21 21 24 28 30 27 29 30 32 32 30 31 32 33 37 37 36 37 38 39 40 42 42 40 41 42 45 46 48 50 50 51 51 52 53 52 50 47 48 49 48
Wind_Direction
225 222 223 225 228 229 235 239 239 243 240 236 236 238 237 234 229 230 227 225 234 235 233 220 224 223 212 219 219 214 170 150 181 102 98 55 46 2 306 293 309 326 280 324 0
226 225 224 224 226 227 229 233 238 242 244 239 242 243 241 239 237 237 231 232 232 232 232 226 228 222 217 220 218 215 176 166 183 137 115 99 293 339 289 287 300 312 292 298 285
230 229 228 226 224 226 227 229 234 234 241 243 247 246 245 246 243 236 233 232 229 230 228 224 224 223 216 217 227 205 171 176 187 179 116 45 334 272 278 283 306 327 323 286 288
235 233 233 232 232 232 231 228 229 236 240 243 247 245 244 242 244 238 237 237 234 224 228 228 223 220 222 210 220 202 180 183 188 198 172 85 295 255 252 279 296 296 314 303 274
242 237 236 240 238 236 237 237 234 237 240 246 247 247 242 239 238 234 232 230 230 227 227 229 226 220 214 211 211 194 190 190 199 200 190 193 278 306 283 268 279 288 294 300 350
245 245 242 241 241 240 242 242 240 240 242 245 247 246 245 237 235 234 234 231 229 227 225 225 226 222 223 219 212 198 202 206 212 219 220 216 218 236 249 257 260 271 317 315 342
248 249 249 249 246 242 239 240 239 240 240 245 248 247 243 231 236 234 233 233 230 230 227 232 235 239 233 233 229 219 217 225 222 221 228 222 238 239 244 229 261 302 315 329 316
256 252 251 249 249 247 245 243 242 239 239 242 243 241 238 232 235 239 229 234 234 231 235 238 233 222 220 221 221 231 233 234 235 241 250 270 272 275 221 224 238 295 306 313 309
257 256 255 253 253 250 246 244 242 241 239 237 239 237 234 237 233 230 232 233 236 234 233 240 238 238 236 231 227 213 210 184 177 179 201 238 289 210 224 218 241 281 291 283 290
260 258 255 253 250 251 249 247 245 242 241 237 234 232 230 230 226 229 230 233 235 238 235 235 238 238 236 235 207 212 213 205 175 190 217 196 104 95 205 233 238 235 239 272 260
260 260 258 256 251 251 250 246 243 242 241 239 237 236 233 234 237 234 235 230 230 233 237 235 231 230 224 217 215 213 219 208 205 174 226 234 149 151 199 216 226 252 245 247 243
254 253 251 250 249 248 249 247 243 239 237 238 243 235 232 233 238 236 232 233 229 226 232 229 234 230 232 227 222 222 223 218 211 183 201 178 192 204 218 220 226 230 238 257 247
253 249 247 245 245 244 243 245 250 245 247 239 241 241 235 234 230 232 233 236 234 235 233 225 232 230 230 230 230 238 237 234 208 197 207 207 196 200 213 221 229 237 235 245 250
247 246 242 242 241 241 242 249 246 241 240 246 246 245 240 239 227 235 235 233 234 234 229 224 229 230 229 231 230 225 226 219 228 214 215 220 220 212 223 227 229 232 240 240 238
244 240 239 237 240 244 250 246 250 251 249 241 244 245 247 242 230 225 243 236 230 228 237 232 239 240 239 233 229 237 236 235 233 229 221 227 231 227 229 233 228 231 232 237 240
243 238 240 238 242 245 246 252 253 259 257 240 237 235 240 240 244 241 236 241 242 241 237 240 244 248 246 241 241 235 233 244 244 244 237 230 238 238 234 227 223 226 231 236 237
241 240 240 240 241 245 246 245 255 252 249 250 250 246 252 254 249 246 251 247 242 236 229 229 238 246 243 247 253 245 239 237 237 241 243 229 229 240 237 233 231 232 233 235 238
240 240 241 240 242 244 247 245 244 253 260 269 271 270 266 253 255 257 251 250 251 244 235 226 233 242 240 243 245 250 251 243 242 241 237 233 222 235 242 238 235 235 242 246 247
240 239 241 240 244 245 244 243 242 248 260 260 255 264 271 274 263 264 262 256 245 241 244 241 239 240 245 245 249 252 254 259 250 236 235 242 246 241 245 247 246 244 248 248 252
246 244 243 244 244 245 246 245 244 248 254 260 254 256 263 271 271 269 269 267 262 254 244 239 246 247 247 251 255 255 256 247 252 250 249 248 245 243 244 251 253 255 252 256 250
247 245 245 245 247 247 245 247 250 250 254 254 257 257 260 265 271 270 268 274 273 260 253 246 243 251 251 253 253 248 246 253 260 260 258 258 257 259 258 259 263 269 274 276 280
246 244 246 248 251 249 248 253 258 254 252 254 257 257 259 262 267 271 274 272 265 259 251 247 242 245 251 254 254 255 257 259 264 264 263 268 270 272 275 275 274 272 271 271 273
249 245 247 251 252 255 258 263 262 259 260 258 256 257 260 257 260 266 269 270 268 260 255 251 252 252 253 257 261 262 263 265 266 269 271 273 276 279 277 276 274 272 272 271 271
262 258 253 254 258 262 264 261 263 261 259 257 256 257 257 258 258 263 266 266 266 263 260 260 258 256 257 260 263 267 269 271 272 274 273 272 272 274 275 276 276 277 278 279 278
271 263 258 256 263 264 265 264 263 266 263 260 259 256 256 259 262 262 263 264 264 263 262 261 261 260 261 263 267 270 273 276 277 276 274 273 272 272 273 275 276 277 277 277 279
278 281 279 276 276 276 278 278 277 273 270 265 263 264 264 263 260 262 263 261 260 260 261 261 264 263 264 266 267 271 275 277 277 276 276 276 276 277 278 278 279 280 281 281 280
288 286 285 284 280 274 272 273 274 270 264 262 265 265 262 260 260 257 255 256 259 261 262 263 263 265 267 268 266 266 267 270 272 274 276 278 280 282 285 288 289 289 287 285 284
Height
5858 5861 5863 5865 5867 5869 5870 5871 5872 5873 5874 5875 5876 5877 5877 5879 5881 5882 5883 5884 5884 5886 5887 5887 5888 5888 5891 5892 5894 5896 5904 5904 5903 5897 5897 5899 5902 5905 5906 5909 5908 5908 5907 5904 5908
5856 5858 5860 5862 5864 5866 5867 5869 5870 5870 5871 5872 5873 5874 5876 5877 5878 5880 5881 5882 5883 5884 5884 5885 5885 5887 5890 5890 5892 5896 5902 5901 5902 5895 5894 5897 5900 5903 5903 5904 5906 5908 5910 5906 5909
5853 5855 5857 5858 5860 5862 5864 5865 5867 5868 5869 5869 5871 5872 5873 5875 5875 5877 5878 5879 5880 5882 5882 5882 5884 5886 5886 5888 5891 5895 5900 5899 5899 5895 5892 5893 5897 5901 5900 5901 5903 5905 5905 5905 5909
5851 5852 5854 5855 5857 5858 5860 5862 5863 5865 5866 5867 5868 5869 5871 5872 5874 5874 5875 5876 5877 5878 5880 5880 5882 5883 5884 5885 5888 5894 5893 5896 5896 5894 5892 5890 5895 5895 5899 5901 5903 5905 5903 5907 5906
5847 5848 5850 5851 5853 5855 5856 5858 5859 5861 5862 5864 5865 5867 5868 5869 5870 5870 5871 5873 5874 5876 5877 5878 5880 5881 5881 5882 5884 5890 5891 5892 5893 5892 5892 5892 5894 5893 5894 5900 5903 5905 5906 5905 5903
5843 5845 5846 5847 5849 5850 5852 5854 5856 5857 5858 5860 5862 5863 5864 5867 5865 5866 5868 5869 5871 5873 5874 5874 5875 5876 5879 5880 5881 5885 5884 5886 5888 5890 5891 5891 5895 5895 5895 5899 5901 5901 5899 5901 5901
5840 5841 5842 5843 5845 5846 5847 5849 5851 5852 5854 5856 5857 5858 5860 5863 5861 5863 5865 5866 5867 5869 5870 5872 5874 5877 5878 5880 5881 5883 5886 5886 5886 5889 5890 5891 5894 5894 5891 5894 5897 5898 5897 5898 5901
5836 5837 5838 5839 5840 5841 5842 5844 5846 5847 5849 5851 5852 5854 5855 5856 5859 5859 5861 5862 5863 5865 5866 5868 5870 5871 5873 5874 5879 5881 5885 5887 5889 5890 5894 5894 5893 5894 5892 5892 5895 5897 5899 5899 5900
5833 5834 5835 5836 5836 5837 5838 5839 5841 5843 5844 5845 5848 5849 5851 5853 5854 5856 5857 5858 5859 5861 5862 5865 5867 5869 5871 5873 5877 5877 5878 5881 5884 5887 5888 5887 5888 5890 5893 5893 5894 5895 5895 5896 5896
5830 5831 5832 5832 5833 5834 5834 5835 5837 5839 5840 5841 5843 5846 5847 5849 5848 5850 5852 5854 5856 5857 5859 5861 5863 5866 5868 5872 5872 5873 5874 5875 5877 5879 5880 5883 5888 5890 5895 5885 5883 5882 5883 5891 5888
5827 5828 5828 5829 5830 5831 5832 5833 5835 5836 5836 5838 5839 5841 5842 5843 5845 5846 5848 5850 5851 5853 5853 5857 5859 5860 5862 5865 5865 5864 5866 5872 5873 5876 5879 5881 5888 5885 5881 5876 5875 5877 5875 5876 5875
5824 5825 5825 5826 5826 5827 5828 5828 5829 5831 5832 5833 5835 5837 5838 5838 5841 5842 5844 5846 5847 5847 5850 5853 5852 5855 5856 5857 5859 5858 5861 5868 5870 5873 5879 5872 5869 5870 5874 5873 5871 5874 5873 5871 5870
5820 5821 5822 5822 5823 5824 5825 5825 5826 5827 5829 5830 5830 5833 5834 5836 5837 5838 5839 5841 5842 5844 5846 5846 5847 5849 5850 5851 5855 5856 5858 5863 5865 5866 5870 5867 5867 5867 5869 5867 5866 5867 5868 5866 5864
5816 5817 5818 5819 5821 5820 5821 5822 5822 5823 5826 5826 5828 5829 5829 5831 5834 5833 5834 5837 5839 5840 5839 5842 5840 5842 5843 5845 5847 5850 5851 5852 5853 5857 5862 5862 5864 5864 5862 5860 5858 5857 5858 5859 5859
5813 5813 5815 5815 5816 5817 5819 5818 5819 5821 5823 5824 5825 5826 5825 5828 5830 5831 5831 5831 5833 5832 5836 5842 5837 5837 5837 5839 5842 5844 5845 5846 5848 5851 5854 5855 5855 5855 5856 5853 5850 5850 5852 5851 5852
5808 5809 5810 5811 5813 5814 5814 5815 5816 5817 5816 5820 5820 5821 5821 5824 5826 5825 5825 5827 5829 5830 5833 5833 5835 5832 5832 5833 5835 5839 5841 5842 5844 5845 5846 5847 5843 5840 5845 5848 5845 5843 5843 5843 5842
5803 5804 5806 5806 5808 5809 5810 5812 5813 5809 5808 5813 5815 5817 5817 5820 5820 5821 5822 5823 5824 5826 5826 5827 5826 5826 5827 5828 5831 5833 5834 5835 5837 5838 5837 5835 5835 5830 5837 5838 5836 5832 5832 5831 5831
5798 5799 5800 5801 5802 5803 5806 5808 5807 5804 5804 5809 5810 5809 5810 5814 5814 5814 5815 5818 5818 5820 5821 5821 5821 5820 5821 5822 5824 5826 5827 5829 5829 5830 5829 5828 5828 5829 5830 5830 5827 5825 5824 5824 5824
5793 5794 5795 5796 5797 5799 5801 5802 5801 5801 5803 5804 5805 5804 5802 5805 5809 5807 5809 5810 5812 5814 5816 5816 5814 5813 5813 5816 5820 5821 5821 5822 5823 5825 5822 5822 5822 5822 5820 5820 5820 5819 5817 5816 5815
5788 5789 5789 5790 5791 5793 5795 5794 5795 5798 5798 5797 5799 5800 5799 5798 5801 5802 5800 5804 5807 5807 5807 5808 5806 5806 5807 5809 5812 5815 5816 5814 5814 5816 5814 5812 5812 5812 5813 5813 5812 5812 5812 5808 5806
5783 5784 5783 5785 5786 5787 5788 5785 5789 5793 5793 5792 5791 5793 5793 5792 5791 5793 5795 5797 5801 5800 5801 5801 5801 5799 5799 5800 5803 5807 5807 5807 5807 5806 5806 5803 5801 5803 5804 5804 5803 5800 5799 5798 5794
5777 5778 5778 5779 5781 5780 5779 5779 5784 5786 5786 5785 5785 5786 5786 5786 5784 5784 5786 5789 5792 5792 5792 5792 5792 5791 5788 5788 5792 5795 5797 5798 5798 5799 5799 5792 5791 5792 5792 5792 5792 5791 5789 5788 5785
5771 5772 5773 5773 5774 5772 5775 5775 5777 5778 5778 5778 5778 5778 5778 5779 5778 5777 5779 5780 5782 5784 5783 5784 5782 5781 5780 5782 5784 5788 5789 5789 5789 5788 5788 5787 5783 5783 5782 5778 5777 5775 5773 5771 5769
5766 5767 5767 5766 5767 5767 5768 5768 5767 5768 5769 5770 5771 5770 5769 5769 5770 5770 5771 5772 5773 5774 5775 5774 5773 5772 5772 5773 5777 5778 5779 5779 5779 5777 5777 5776 5772 5768 5765 5764 5762 5759 5756 5752 5749
5760 5760 5762 5762 5760 5760 5760 5760 5760 5761 5761 5760 5760 5760 5760 5761 5763 5763 5764 5764 5765 5766 5766 5766 5763 5762 5764 5765 5770 5769 5768 5766 5764 5763 5763 5762 5760 5758 5754 5752 5747 5745 5742 5737 5734
5757 5756 5756 5756 5756 5755 5753 5751 5753 5753 5752 5750 5750 5751 5753 5754 5754 5754 5755 5754 5754 5755 5755 5755 5751 5751 5753 5756 5758 5758 5756 5753 5751 5748 5746 5745 5743 5741 5739 5736 5733 5727 5723 5719 5716
5753 5752 5751 5750 5748 5749 5747 5744 5742 5743 5743 5742 5741 5741 5743 5743 5743 5743 5742 5743 5744 5744 5744 5744 5741 5741 5742 5743 5743 5746 5744 5742 5739 5735 5732 5731 5730 5727 5723 5719 5716 5711 5706 5700 5695